Theta_e
335 332 331 331 332 333 335 336 338 339 339 341 340 339 337 336 336 338 335 334 332 331
334 335 333 333 333 334 337 337 337 339 338 340 340 339 338 337 337 337 336 335 332 332
336 336 336 336 335 336 336 338 337 337 338 338 339 339 338 338 337 336 335 333 331 332
337 338 337 337 338 338 340 339 338 338 338 337 337 339 338 338 336 335 332 331 331 328
339 337 338 340 338 340 340 342 340 339 338 339 338 338 339 336 336 334 332 330 328 322
340 340 337 339 340 339 340 343 342 341 340 339 339 338 339 338 335 334 333 329 325 320
319 327 341 340 341 340 341 342 342 343 343 341 342 341 339 337 332 329 327 326 324 321
315 321 330 339 340 341 340 342 342 343 343 342 341 340 337 333 331 328 325 324 320 318
314 319 322 333 339 339 339 339 339 340 340 337 335 313 317 325 326 325 323 320 319 316
311 317 320 329 332 334 335 336 336 338 337 335 331 311 312 318 330 329 328 323 318 314
310 314 320 329 331 330 332 332 333 334 335 333 330 310 310 312 330 328 325 319 316 315
309 313 318 328 328 328 328 329 331 332 333 331 328 306 304 316 324 321 317 317 312 309
310 312 315 323 326 329 329 329 329 328 332 325 324 303 304 314 314 311 309 308 306 304
311 312 315 318 328 328 327 327 326 325 328 328 321 309 303 304 312 309 308 305 304 302
Wind_Speed
16 10 10 11 9 10 11 12 13 12 11 12 11 10 9 7 8 9 8 9 6 4
15 15 12 11 10 9 8 7 10 13 12 11 10 11 10 8 9 9 9 8 7 4
13 15 13 12 13 12 10 10 11 12 13 12 12 11 12 8 8 10 8 6 8 5
10 9 7 9 10 11 12 12 13 13 13 13 13 12 10 8 12 12 10 9 10 6
7 8 7 9 10 10 12 11 12 11 11 11 11 10 12 11 10 12 13 11 11 10
6 11 11 9 9 10 11 12 10 10 11 10 10 11 11 11 10 9 8 11 12 12
8 4 8 11 12 12 13 12 13 14 13 11 10 11 12 12 12 13 13 9 6 6
11 6 4 8 10 10 13 13 13 12 11 10 11 9 13 15 17 16 13 11 14 9
13 8 4 5 8 11 11 11 11 12 14 14 9 17 17 18 16 19 18 16 15 14
12 10 5 4 5 8 12 12 14 13 14 15 16 25 26 28 19 22 20 19 16 14
12 8 7 3 7 7 8 12 11 14 14 16 17 27 27 21 16 8 12 15 15 14
8 8 8 3 6 7 8 7 8 12 14 16 16 18 15 15 10 11 12 12 13 14
8 7 8 7 8 7 8 7 6 8 13 17 15 15 15 14 10 13 10 9 11 19
8 10 9 8 6 4 9 9 9 8 6 13 17 17 19 18 13 12 11 10 9 8
Wind_Direction
193 190 191 185 182 187 188 188 179 186 190 193 187 188 177 176 182 177 179 173 174 179
191 193 189 183 176 184 187 177 177 178 180 188 186 190 181 182 178 173 171 184 176 158
212 200 186 178 186 182 182 175 177 179 181 182 189 189 187 186 168 164 173 163 164 174
214 213 200 184 184 180 178 178 180 187 186 188 190 190 186 180 167 169 163 167 167 137
189 191 198 193 179 174 183 184 184 184 192 191 194 186 186 179 187 175 168 158 141 134
204 192 198 192 183 179 175 181 173 172 187 186 191 181 185 179 168 187 174 164 147 139
328 320 208 197 196 181 181 179 179 186 187 178 176 173 173 160 146 135 128 106 112 153
305 304 269 196 202 190 182 182 183 182 175 165 167 169 167 161 157 141 131 146 144 154
306 300 332 237 195 179 180 179 170 176 160 154 149 137 141 139 142 134 147 158 176 157
297 297 311 264 178 184 186 176 182 173 162 158 153 153 154 159 167 177 181 157 159 151
275 302 299 235 183 183 190 191 182 180 172 164 169 170 168 165 167 171 139 147 151 154
278 286 289 246 207 170 174 182 186 182 173 168 173 171 148 156 137 136 137 144 143 140
267 276 278 270 216 198 183 169 155 180 187 178 166 152 147 137 132 129 129 124 139 145
259 253 257 256 231 160 206 171 163 165 184 177 166 160 155 146 145 143 139 142 144 141